SCP
0 0 0 0 0 0 0 0 0 0 0 0 0 0 0 0 0 0 0 0 0 0 0 0 0 0 0 0 0 0 0 0 0 0 0 0 0 0 0 0 0 0 0 0
0 0 0 0 0 0 0 0 0 0 0 0 0 0 0 0 0 0 0 0 0 0 0 0 0 0 0 0 0 0 0 0 0 0 0 0 0 0 0 0 0 0 0 0
0 0 0 0 0 0 0 0 0 0 0 0 0 0 0 0 0 0 0 0 0 0 0 0 0 0 0 0 0 0 0 0 0 0 0 0 0 0 0 0 0 0 0 0
0 0 0 0 0 0 0 0 0 0 0 0 0 0 0 0 0 0 0 0 0 0 0 0 0 0 0 0 0 0 0 0 0 0 0 0 0 0 0 0 0 0 0 0
0 0 0 0 0 0 0 0 0 0 0 0 0 0 0 0 0 0 0 0 0 0 0 0 0 0 0 0 0 0 0 0 0 0 0 0 0 0 0 0 0 0 0 0
0 0 0 0 0 0 0 0 0 0 0 0 0 0 -0 0 0 0 0 0 0 0 0 0 0 0 0 0 0 0 0 0 0 0 0 0 0 0 0 0 0 0 0 0
0 0 0 0 0 0 0 0 0 0 0 0 0 0 0 0 0 0 0 0 0 0 0 0 0 0 0 0 0 0 0 0 0 0 0 0 0 0 0 0 0 0 0 0
0 0 0 0 0 0 0 0 0 0 0 0 0 0 0 -0 -0 0 0 0 0 0 0 0 0 0 0 0 0 0 0 0 0 0 0 0 0 0 0 0 0 0 0 0
0 0 0 0 0 0 0 0 0 0 0 0 0 0 0 0 0 0 0 0 0 0 0 0 0 0 0 0 0 0 0 0 0 0 0 0 0 0 0 0 0 0 0 0
0 0 0 0 0 0 0 0 0 0 0 0 0 0 0 0 0 0 0 0 0 0 0 0 0 0 0 0 0 0 0 0 0 0 0 0 0 0 0 0 0 0 0 0
0 0 0 0 0 0 0 0 0 0 0 0 0 0 -0 0 0 0 0 0 0 0 0 0 0 0 0 0 0 0 0 0 0 0 0 0 0 0 0 0 0 0 0 0
0 0 0 0 0 0 0 0 0 0 0 0 0 0 0 0 0 0 0 0 0 0 0 0 0 0 0 0 0 0 0 0 0 0 0 0 0 0 0 0 0 0 0 0
0 0 0 0 0 0 0 0 0 0 0 0 0 0 0 0 0 0 0 0 0 0 0 0 0 0 0 0 0 0 0 0 0 0 0 0 0 0 0 0 0 0 0 0
0 0 0 0 0 0 0 0 0 0 0 0 0 0 0 0 0 0 0 0 0 0 0 0 0 0 0 0 0 0 0 0 0 0 0 0 0 0 0 0 0 0 0 0
0 0 0 0 0 0 0 0 0 0 0 0 0 0 0 0 0 0 0 0 0 0 0 0 0 0 0 0 0 0 0 0 0 0 0 0 0 0 0 0 0 0 0 0
-0 0 -0 0 -0 0 0 0 0 0 0 0 0 0 0 0 0 0 0 0 0 0 0 0 0 0 0 0 0 0 0 0 0 0 0 0 0 0 0 0 0 0 0 0
-0 -0 0 0 0 -0 0 0 0 0 0 0 0 0 0 0 0 0 0 0 0 0 0 0 0 0 0 0 0 0 0 0 0 0 0 0 0 0 0 0 0 0 0 0
0 -0 -0 -0 -0 -0 -0 -0 0 0 0 0 0 0 0 0 0 0 0 0 0 0 0 0 0 0 0 0 0 0 0 0 0 0 0 0 0 0 0 0 0 0 0 0
0 0 0 -0 -0 0 0 0 0 0 0 0 0 0 0 0 0 0 0 0 0 0 0 0 0 0 0 0 0 0 0 0 0 0 0 0 0 0 0 0 0 0 0 0
0 0 0 0 -0 -0 -0 -0 0 0 0 0 0 0 0 0 0 0 0 0 0 0 0 0 0 0 0 0 0 0 0 0 0 0 0 0 0 0 0 0 0 0 0 0
0 0 -0 0 0 0 -0 0 -0 -0 0 0 0 0 0 0 0 0 0 0 0 0 0 0 0 0 0 0 0 0 0 0 0 0 0 0 0 0 0 0 0 0 0 0
0 0 0 0 0 0 0 0 0 0 0 0 -0 0 0 0 0 0 0 0 0 0 0 0 0 0 0 0 0 0 0 0 0 0 0 0 0 0 0 0 0 0 0 0
0 0 0 0 0 0 0 -0 0 -0 0 0 0 0 0 0 0 0 0 0 0 0 0 0 0 0 0 0 0 0 0 0 0 0 0 0 0 0 0 0 0 0 0 0
0 0 0 0 0 0 0 0 0 0 -0 -0 -0 -0 0 0 0 0 0 0 0 0 0 0 0 0 0 0 0 0 0 0 0 0 0 0 0 0 0 0 0 0 0 0
0 0 0 0 0 0 0 0 0 -0 -0 -0 0 0 0 0 0 0 0 0 0 0 0 0 0 0 0 0 0 0 0 0 0 0 0 0 0 0 0 0 0 0 0 0
0 0 0 0 0 0 0 0 0 -0 0 0 0 0 0 0 0 0 0 0 0 0 0 0 0 0 0 0 0 0 0 0 0 0 0 0 0 0 0 0 0 0 0 0
Wind_Speed_500mb
8 7 21 21 19 5 11 8 11 6 9 8 22 18 35 39 29 40 45 35 40 57 64 57 59 62 64 64 59 54 50 44 41 44 43 45 45 41 41 39 38 38 39 39
4 21 9 6 8 11 6 7 7 8 3 11 9 22 28 18 24 51 57 52 50 43 40 43 55 58 64 71 68 60 56 50 50 50 48 48 45 47 43 41 41 40 41 42
10 7 27 16 11 20 19 11 8 7 6 4 7 15 20 16 45 62 68 69 66 67 62 54 49 45 47 59 60 57 58 58 55 50 50 50 52 55 53 50 47 47 46 43
14 19 14 12 18 15 18 15 14 10 6 9 4 12 13 13 21 14 51 66 86 82 82 70 59 58 49 52 52 48 53 57 54 55 57 58 59 64 62 55 45 43 40 38
15 12 20 25 15 19 9 14 16 10 5 3 5 4 11 6 12 20 32 55 74 91 88 76 65 59 61 60 55 56 61 63 66 67 67 63 60 64 59 52 46 41 40 40
12 4 15 13 9 13 10 12 14 9 6 11 22 14 11 12 13 12 21 53 56 57 73 79 64 60 57 56 54 54 55 60 63 61 59 61 61 59 61 55 53 51 50 51
11 27 5 8 14 7 11 17 2 4 2 15 3 16 32 12 11 15 19 34 36 43 42 51 66 57 58 60 55 50 48 50 54 60 61 59 58 55 51 53 55 56 55 51
18 11 29 12 12 12 25 23 10 15 10 7 10 18 12 27 46 56 47 45 36 41 39 43 51 55 52 47 45 46 44 44 44 43 43 42 43 49 55 55 54 55 54 50
16 16 6 12 10 25 14 17 11 7 4 4 10 14 15 19 18 25 48 63 62 40 42 43 44 46 46 44 44 43 44 41 39 39 39 39 39 39 40 44 49 46 45 47
7 6 12 18 11 17 18 18 13 2 7 8 10 11 14 3 18 13 9 24 41 46 45 50 50 49 47 41 37 35 35 32 31 34 35 35 36 35 32 33 37 39 39 40
9 5 3 15 25 37 13 20 10 10 10 10 4 12 15 29 23 19 16 26 38 43 52 58 54 48 40 37 37 35 36 36 36 36 34 32 31 31 32 33 39 41 41 39
22 12 17 23 8 35 36 25 33 15 21 17 6 13 6 3 3 17 28 19 24 39 51 55 53 48 45 43 41 39 38 36 37 37 34 32 31 32 33 34 39 37 36 33
10 13 17 6 12 11 22 31 26 32 5 25 12 16 7 16 4 7 4 5 33 38 49 52 52 53 50 47 44 41 40 41 39 36 35 36 36 37 35 37 38 39 37 35
5 7 11 29 14 5 13 18 28 30 22 33 32 49 17 9 9 4 2 7 14 36 50 56 56 55 53 49 45 43 39 39 39 39 39 39 41 41 40 39 38 36 34 32
7 7 6 14 16 25 25 38 36 45 45 32 53 51 35 26 22 19 21 19 18 21 35 48 55 60 60 54 48 44 43 43 44 45 45 43 42 41 41 40 37 35 31 28
7 7 7 6 4 7 20 21 25 42 49 41 47 51 24 35 45 44 54 42 29 36 47 54 66 71 66 62 58 54 52 51 50 49 48 47 47 46 44 41 37 33 30 29
7 4 3 4 11 7 14 26 21 21 32 38 50 63 40 40 23 33 48 45 46 51 56 58 66 74 76 72 69 67 62 57 55 53 52 51 50 47 44 40 38 36 33 29
8 7 5 7 5 9 18 16 23 29 33 35 39 42 35 49 66 66 67 70 80 81 82 78 82 85 87 85 83 73 66 63 59 57 57 55 54 51 49 46 42 39 35 30
25 7 5 5 8 13 17 14 16 17 30 37 46 53 65 78 65 55 78 86 91 91 92 91 89 89 93 95 91 81 76 71 64 61 61 61 59 56 52 48 44 41 38 34
17 18 10 3 8 13 16 18 44 6 20 25 37 43 48 64 22 36 95 59 72 77 83 90 92 92 93 94 96 88 84 77 72 68 65 61 57 53 50 48 45 41 36 30
5 6 25 26 15 12 28 11 8 11 12 22 26 57 59 30 38 69 51 36 35 50 66 76 86 90 90 89 89 91 88 81 74 68 65 62 58 54 50 45 40 34 30 27
12 9 7 8 14 15 4 6 10 9 39 54 42 31 37 57 72 64 63 62 53 49 59 63 71 78 79 78 84 92 89 83 72 67 64 61 57 54 48 43 39 35 31 25
6 13 8 15 10 17 18 23 26 39 41 53 50 54 43 50 52 47 50 49 36 40 53 60 63 67 69 72 80 86 86 77 70 65 64 60 56 52 46 42 36 31 25 24
11 15 9 7 22 26 52 55 43 46 34 40 42 47 47 55 56 58 54 47 41 36 47 55 57 60 65 70 75 75 71 67 63 62 61 59 54 49 42 36 35 35 34 39
11 7 8 13 30 22 48 35 35 33 35 45 49 44 48 48 54 53 51 45 40 38 39 48 54 59 66 68 67 66 64 63 62 61 59 56 51 45 45 46 37 35 38 39
20 20 11 24 42 27 42 37 28 37 47 48 47 48 41 39 45 43 41 39 37 39 40 44 50 54 59 59 59 57 58 58 59 61 61 56 57 57 49 44 43 49 46 39
Wind_Direction_500mb
179 149 203 193 200 127 145 162 172 214 254 173 226 223 241 244 250 269 267 260 245 240 239 231 232 234 232 235 238 236 234 237 238 239 245 248 249 254 259 257 254 253 255 261
124 235 211 195 205 205 160 159 206 287 305 185 254 253 254 230 247 253 261 265 256 247 236 229 234 237 236 235 232 231 235 240 244 244 249 254 260 263 266 264 260 256 258 258
198 224 179 192 189 204 225 193 183 203 352 337 4 278 253 235 233 251 255 257 257 251 246 239 233 225 226 226 232 236 239 242 246 255 247 248 253 257 258 257 255 255 258 257
241 246 196 182 211 180 216 180 186 210 137 230 109 277 263 230 235 233 247 244 246 244 242 240 236 228 226 231 234 237 236 235 235 236 241 251 256 256 261 269 272 269 263 260
213 196 198 210 187 182 206 162 182 173 150 66 234 307 258 269 258 253 244 242 243 243 242 239 235 236 239 241 239 236 234 232 234 235 239 249 259 261 257 257 264 262 257 256
225 199 188 196 170 184 153 91 48 50 100 255 221 195 233 205 198 248 243 244 244 246 242 237 231 226 227 231 234 234 235 234 234 237 243 249 257 257 252 251 248 246 244 244
187 246 256 191 156 154 172 140 41 1 326 236 261 199 247 233 242 231 242 253 256 253 247 232 227 227 229 230 227 226 227 233 240 246 250 253 252 249 249 248 244 243 241 238
197 210 223 195 198 173 193 181 155 189 202 230 151 231 246 236 241 240 243 246 253 251 234 215 215 216 215 218 224 231 235 242 245 248 250 252 250 247 245 242 237 234 238 243
195 238 250 200 175 172 194 201 180 106 46 72 215 285 291 262 266 235 237 242 245 239 211 206 208 207 207 215 224 233 238 237 241 247 251 250 250 248 246 242 237 234 237 241
226 245 196 207 179 217 187 162 190 89 142 250 261 264 236 307 256 274 250 226 227 231 209 206 206 206 211 221 233 233 234 234 244 243 239 240 238 234 227 233 232 232 237 247
239 175 283 142 201 193 177 198 189 158 167 197 268 257 216 211 211 221 237 222 206 204 205 204 204 206 214 223 230 230 234 240 238 236 236 234 230 224 222 222 232 237 237 234
201 222 229 223 256 213 206 208 197 198 220 232 261 260 315 182 181 214 259 231 216 205 197 199 202 210 218 224 228 238 241 241 240 240 237 230 225 220 216 215 223 222 221 220
340 226 234 243 284 290 212 214 213 218 48 216 195 255 202 233 178 283 250 226 211 209 205 205 210 215 220 226 232 235 238 240 240 237 232 227 221 216 215 214 209 203 199 197
273 273 225 238 267 206 212 203 215 217 228 236 226 248 230 264 248 202 242 231 210 213 213 214 218 224 227 231 233 235 239 240 236 232 227 223 217 211 205 201 197 196 199 205
191 249 269 290 277 297 292 221 211 217 232 236 239 246 239 233 251 256 231 248 252 241 229 229 233 231 231 233 237 240 240 235 230 226 222 217 211 206 203 202 202 205 208 213
189 257 232 324 205 354 308 295 270 225 228 232 249 261 254 252 253 251 257 262 251 253 254 253 246 238 235 239 240 239 239 234 229 225 221 215 210 207 206 207 208 212 216 219
197 227 358 241 277 266 283 242 233 255 245 231 238 244 256 260 242 243 257 256 252 248 246 256 256 250 246 246 244 239 235 231 227 223 219 216 213 213 212 211 213 213 211 213
225 174 184 253 124 215 236 221 209 211 232 227 245 256 252 257 257 256 257 255 257 258 261 254 256 254 248 244 241 236 232 229 224 221 219 216 214 212 211 210 209 207 204 204
216 162 253 201 188 284 299 244 198 193 238 234 236 246 252 256 260 264 254 252 254 258 261 259 259 252 247 246 239 232 227 224 222 221 219 216 214 212 210 208 206 205 206 212
191 214 200 95 221 223 249 263 246 358 266 255 232 242 249 256 260 260 262 257 259 257 259 260 258 252 249 244 235 227 223 221 220 218 217 215 214 213 211 209 208 209 214 218
165 199 214 223 234 267 253 268 272 179 252 357 303 252 259 255 239 257 269 261 263 264 259 256 255 253 248 239 230 223 221 219 218 215 213 212 211 210 209 208 209 210 208 209
173 165 198 228 216 250 263 140 181 213 315 304 312 305 285 271 267 267 270 277 275 260 252 253 251 247 241 232 225 218 214 217 215 212 212 211 208 207 206 206 208 209 209 206
258 194 203 190 221 235 265 268 275 301 286 290 296 302 303 295 293 294 290 289 276 249 242 243 240 235 225 220 219 216 212 211 210 208 207 206 204 204 204 204 201 206 208 220
256 190 208 63 264 268 275 284 284 295 291 300 304 303 295 288 289 291 291 285 275 256 243 236 230 224 217 212 210 212 212 207 206 206 205 203 202 201 200 200 208 221 221 223
221 133 205 241 262 251 268 275 277 296 304 309 306 299 292 290 287 285 283 275 268 255 239 233 228 221 213 208 205 205 207 206 203 203 202 199 197 197 209 215 211 215 220 223
201 223 220 255 265 251 276 285 288 302 301 299 294 295 290 280 283 282 277 274 268 257 239 225 220 216 209 207 207 206 206 207 205 200 197 195 208 214 211 204 209 216 217 217
Wind_Speed_850mb
8 7 21 21 19 5 11 8 11 6 9 8 22 18 35 39 29 40 45 35 40 57 64 57 59 62 64 64 59 54 50 44 41 44 43 45 45 41 41 39 38 38 39 39
4 21 9 6 8 11 6 7 7 8 3 11 9 22 28 18 24 51 57 52 50 43 40 43 55 58 64 71 68 60 56 50 50 50 48 48 45 47 43 41 41 40 41 42
10 7 27 16 11 20 19 11 8 7 6 4 7 15 20 16 45 62 68 69 66 67 62 54 49 45 47 59 60 57 58 58 55 50 50 50 52 55 53 50 47 47 46 43
14 19 14 12 18 15 18 15 14 10 6 9 4 12 13 13 21 14 51 66 86 82 82 70 59 58 49 52 52 48 53 57 54 55 57 58 59 64 62 55 45 43 40 38
15 12 20 25 15 19 9 14 16 10 5 3 5 4 11 6 12 20 32 55 74 91 88 76 65 59 61 60 55 56 61 63 66 67 67 63 60 64 59 52 46 41 40 40
12 4 15 13 9 13 10 12 14 9 6 11 22 14 11 12 13 12 21 53 56 57 73 79 64 60 57 56 54 54 55 60 63 61 59 61 61 59 61 55 53 51 50 51
11 27 5 8 14 7 11 17 2 4 2 15 3 16 32 12 11 15 19 34 36 43 42 51 66 57 58 60 55 50 48 50 54 60 61 59 58 55 51 53 55 56 55 51
18 11 29 12 12 12 25 23 10 15 10 7 10 18 12 27 46 56 47 45 36 41 39 43 51 55 52 47 45 46 44 44 44 43 43 42 43 49 55 55 54 55 54 50
16 16 6 12 10 25 14 17 11 7 4 4 10 14 15 19 18 25 48 63 62 40 42 43 44 46 46 44 44 43 44 41 39 39 39 39 39 39 40 44 49 46 45 47
7 6 12 18 11 17 18 18 13 2 7 8 10 11 14 3 18 13 9 24 41 46 45 50 50 49 47 41 37 35 35 32 31 34 35 35 36 35 32 33 37 39 39 40
9 5 3 15 25 37 13 20 10 10 10 10 4 12 15 29 23 19 16 26 38 43 52 58 54 48 40 37 37 35 36 36 36 36 34 32 31 31 32 33 39 41 41 39
22 12 17 23 8 35 36 25 33 15 21 17 6 13 6 3 3 17 28 19 24 39 51 55 53 48 45 43 41 39 38 36 37 37 34 32 31 32 33 34 39 37 36 33
10 13 17 6 12 11 22 31 26 32 5 25 12 16 7 16 4 7 4 5 33 38 49 52 52 53 50 47 44 41 40 41 39 36 35 36 36 37 35 37 38 39 37 35
5 7 11 29 14 5 13 18 28 30 22 33 32 49 17 9 9 4 2 7 14 36 50 56 56 55 53 49 45 43 39 39 39 39 39 39 41 41 40 39 38 36 34 32
7 7 6 14 16 25 25 38 36 45 45 32 53 51 35 26 22 19 21 19 18 21 35 48 55 60 60 54 48 44 43 43 44 45 45 43 42 41 41 40 37 35 31 28
7 7 7 6 4 7 20 21 25 42 49 41 47 51 24 35 45 44 54 42 29 36 47 54 66 71 66 62 58 54 52 51 50 49 48 47 47 46 44 41 37 33 30 29
7 4 3 4 11 7 14 26 21 21 32 38 50 63 40 40 23 33 48 45 46 51 56 58 66 74 76 72 69 67 62 57 55 53 52 51 50 47 44 40 38 36 33 29
8 7 5 7 5 9 18 16 23 29 33 35 39 42 35 49 66 66 67 70 80 81 82 78 82 85 87 85 83 73 66 63 59 57 57 55 54 51 49 46 42 39 35 30
25 7 5 5 8 13 17 14 16 17 30 37 46 53 65 78 65 55 78 86 91 91 92 91 89 89 93 95 91 81 76 71 64 61 61 61 59 56 52 48 44 41 38 34
17 18 10 3 8 13 16 18 44 6 20 25 37 43 48 64 22 36 95 59 72 77 83 90 92 92 93 94 96 88 84 77 72 68 65 61 57 53 50 48 45 41 36 30
5 6 25 26 15 12 28 11 8 11 12 22 26 57 59 30 38 69 51 36 35 50 66 76 86 90 90 89 89 91 88 81 74 68 65 62 58 54 50 45 40 34 30 27
12 9 7 8 14 15 4 6 10 9 39 54 42 31 37 57 72 64 63 62 53 49 59 63 71 78 79 78 84 92 89 83 72 67 64 61 57 54 48 43 39 35 31 25
6 13 8 15 10 17 18 23 26 39 41 53 50 54 43 50 52 47 50 49 36 40 53 60 63 67 69 72 80 86 86 77 70 65 64 60 56 52 46 42 36 31 25 24
11 15 9 7 22 26 52 55 43 46 34 40 42 47 47 55 56 58 54 47 41 36 47 55 57 60 65 70 75 75 71 67 63 62 61 59 54 49 42 36 35 35 34 39
11 7 8 13 30 22 48 35 35 33 35 45 49 44 48 48 54 53 51 45 40 38 39 48 54 59 66 68 67 66 64 63 62 61 59 56 51 45 45 46 37 35 38 39
20 20 11 24 42 27 42 37 28 37 47 48 47 48 41 39 45 43 41 39 37 39 40 44 50 54 59 59 59 57 58 58 59 61 61 56 57 57 49 44 43 49 46 39
Wind_Direction_850mb
179 149 203 193 200 127 145 162 172 214 254 173 226 223 241 244 250 269 267 260 245 240 239 231 232 234 232 235 238 236 234 237 238 239 245 248 249 254 259 257 254 253 255 261
124 235 211 195 205 205 160 159 206 287 305 185 254 253 254 230 247 253 261 265 256 247 236 229 234 237 236 235 232 231 235 240 244 244 249 254 260 263 266 264 260 256 258 258
198 224 179 192 189 204 225 193 183 203 352 337 4 278 253 235 233 251 255 257 257 251 246 239 233 225 226 226 232 236 239 242 246 255 247 248 253 257 258 257 255 255 258 257
241 246 196 182 211 180 216 180 186 210 137 230 109 277 263 230 235 233 247 244 246 244 242 240 236 228 226 231 234 237 236 235 235 236 241 251 256 256 261 269 272 269 263 260
213 196 198 210 187 182 206 162 182 173 150 66 234 307 258 269 258 253 244 242 243 243 242 239 235 236 239 241 239 236 234 232 234 235 239 249 259 261 257 257 264 262 257 256
225 199 188 196 170 184 153 91 48 50 100 255 221 195 233 205 198 248 243 244 244 246 242 237 231 226 227 231 234 234 235 234 234 237 243 249 257 257 252 251 248 246 244 244
187 246 256 191 156 154 172 140 41 1 326 236 261 199 247 233 242 231 242 253 256 253 247 232 227 227 229 230 227 226 227 233 240 246 250 253 252 249 249 248 244 243 241 238
197 210 223 195 198 173 193 181 155 189 202 230 151 231 246 236 241 240 243 246 253 251 234 215 215 216 215 218 224 231 235 242 245 248 250 252 250 247 245 242 237 234 238 243
195 238 250 200 175 172 194 201 180 106 46 72 215 285 291 262 266 235 237 242 245 239 211 206 208 207 207 215 224 233 238 237 241 247 251 250 250 248 246 242 237 234 237 241
226 245 196 207 179 217 187 162 190 89 142 250 261 264 236 307 256 274 250 226 227 231 209 206 206 206 211 221 233 233 234 234 244 243 239 240 238 234 227 233 232 232 237 247
239 175 283 142 201 193 177 198 189 158 167 197 268 257 216 211 211 221 237 222 206 204 205 204 204 206 214 223 230 230 234 240 238 236 236 234 230 224 222 222 232 237 237 234
201 222 229 223 256 213 206 208 197 198 220 232 261 260 315 182 181 214 259 231 216 205 197 199 202 210 218 224 228 238 241 241 240 240 237 230 225 220 216 215 223 222 221 220
340 226 234 243 284 290 212 214 213 218 48 216 195 255 202 233 178 283 250 226 211 209 205 205 210 215 220 226 232 235 238 240 240 237 232 227 221 216 215 214 209 203 199 197
273 273 225 238 267 206 212 203 215 217 228 236 226 248 230 264 248 202 242 231 210 213 213 214 218 224 227 231 233 235 239 240 236 232 227 223 217 211 205 201 197 196 199 205
191 249 269 290 277 297 292 221 211 217 232 236 239 246 239 233 251 256 231 248 252 241 229 229 233 231 231 233 237 240 240 235 230 226 222 217 211 206 203 202 202 205 208 213
189 257 232 324 205 354 308 295 270 225 228 232 249 261 254 252 253 251 257 262 251 253 254 253 246 238 235 239 240 239 239 234 229 225 221 215 210 207 206 207 208 212 216 219
197 227 358 241 277 266 283 242 233 255 245 231 238 244 256 260 242 243 257 256 252 248 246 256 256 250 246 246 244 239 235 231 227 223 219 216 213 213 212 211 213 213 211 213
225 174 184 253 124 215 236 221 209 211 232 227 245 256 252 257 257 256 257 255 257 258 261 254 256 254 248 244 241 236 232 229 224 221 219 216 214 212 211 210 209 207 204 204
216 162 253 201 188 284 299 244 198 193 238 234 236 246 252 256 260 264 254 252 254 258 261 259 259 252 247 246 239 232 227 224 222 221 219 216 214 212 210 208 206 205 206 212
191 214 200 95 221 223 249 263 246 358 266 255 232 242 249 256 260 260 262 257 259 257 259 260 258 252 249 244 235 227 223 221 220 218 217 215 214 213 211 209 208 209 214 218
165 199 214 223 234 267 253 268 272 179 252 357 303 252 259 255 239 257 269 261 263 264 259 256 255 253 248 239 230 223 221 219 218 215 213 212 211 210 209 208 209 210 208 209
173 165 198 228 216 250 263 140 181 213 315 304 312 305 285 271 267 267 270 277 275 260 252 253 251 247 241 232 225 218 214 217 215 212 212 211 208 207 206 206 208 209 209 206
258 194 203 190 221 235 265 268 275 301 286 290 296 302 303 295 293 294 290 289 276 249 242 243 240 235 225 220 219 216 212 211 210 208 207 206 204 204 204 204 201 206 208 220
256 190 208 63 264 268 275 284 284 295 291 300 304 303 295 288 289 291 291 285 275 256 243 236 230 224 217 212 210 212 212 207 206 206 205 203 202 201 200 200 208 221 221 223
221 133 205 241 262 251 268 275 277 296 304 309 306 299 292 290 287 285 283 275 268 255 239 233 228 221 213 208 205 205 207 206 203 203 202 199 197 197 209 215 211 215 220 223
201 223 220 255 265 251 276 285 288 302 301 299 294 295 290 280 283 282 277 274 268 257 239 225 220 216 209 207 207 206 206 207 205 200 197 195 208 214 211 204 209 216 217 217